Back to catalog

COSMOS 2478

GLONASS

AliveNavigationMEO
NORAD 37938·PAYLOAD·🇷🇺 Russia

Launched Nov 28, 2011 from Plesetsk Cosmodrome

Loading…

Next Passes (next 24 hours)

TLE

FreshSource: Space-Track

Epoch: Sep 11, 2026, 19:15 UTC

1 37938U 11071A   26254.80270102 -.00000042  00000-0  00000-0 0  9996
2 37938  65.4082 311.9365 0018491 219.8991 138.0783  2.13015663114987

Track COSMOS 2478 in real time with AllMySat

Download on the App Store